This demonstration page uses our WeatherBlox Daily Observations layout. Learn more.

Left ArrowRight Arrow

Hourly Observations for September 15, 2015

Temp ( °F °C ) Dew Point ( °F °C ) Humidity (%) Winds ( mph kmh ) Pressure ( in mb ) Visibility ( mi km ) Precip ( " mm )
12:51 am 00:51 Clear 76 24.4 55 12.8 48 48 NW 6 9 29.8 1009 10 16.0934 0 0
1:51 am 01:51 Partly Cloudy 73 22.8 55 12.8 53 53 SE 7 11 29.78 1008 10 16.0934 0 0
2:51 am 02:51 Cloudy 74 23.3 57 13.9 56 56 S 6 9 29.77 1008 10 16.0934 0 0
3:51 am 03:51 Cloudy 73 22.8 57 13.9 57 57 E 3 6 29.78 1009 10 16.0934 0 0
4:51 am 04:51 Mostly Clear 71 21.7 56 13.3 59 59 ENE 3 6 29.8 1009 10 16.0934 0 0
5:51 am 05:51 Clear 70 21.1 56 13.3 61 61 E 7 11 29.83 1010 10 16.0934 0 0
6:51 am 06:51 Mostly Sunny 74 23.3 57 13.9 56 56 ESE 3 6 29.85 1011 10 16.0934 0 0
7:51 am 07:51 Sunny 80 26.7 60 15.6 51 51 E 9 15 29.85 1011 10 16.0934 0 0
8:51 am 08:51 Sunny 83 28.3 60 15.6 46 46 E 8 13 29.86 1011 10 16.0934 0 0
9:51 am 09:51 Sunny 85 29.4 59 15 42 42 VRB 3 6 29.86 1011 10 16.0934 0 0
10:51 am 10:51 Mostly Sunny 86 30 57 13.9 37 37 VRB 3 6 29.85 1011 10 16.0934 0 0
11:51 am 11:51 Sunny 89 31.7 53 11.7 29 29 Calm 29.83 1010 10 16.0934 0 0
12:51 pm 12:51 Sunny 91 32.8 51 10.6 26 26 VRB 5 7 29.8 1009 10 16.0934 0 0
1:51 pm 13:51 Mostly Cloudy 91 32.8 51 10.6 26 26 WNW 8 13 29.78 1009 10 16.0934 0 0
2:51 pm 14:51 Sunny 90 32.2 51 10.6 26 26 WNW 7 11 29.77 1008 10 16.0934 0 0
3:51 pm 15:51 Mostly Sunny 94 34.4 50 10 22 22 WNW 13 20 29.75 1007 10 16.0934 0 0
4:51 pm 16:51 Mostly Sunny 93 33.9 50 10 23 23 WNW 21 33 29.74 1007 10 16.0934 0 0
5:51 pm 17:51 Mostly Sunny 88 31.1 54 12.2 31 31 NW 15 24 29.77 1008 10 16.0934 0 0
6:51 pm 18:51 Clear 85 29.4 55 12.8 36 36 NW 16 26 29.78 1008 10 16.0934 0 0
7:51 pm 19:51 Clear 83 28.3 56 13.3 40 40 NW 13 20 29.79 1009 10 16.0934 0 0
8:51 pm 20:51 Partly Cloudy 83 28.3 56 13.3 40 40 NW 16 26 29.81 1010 10 16.0934 0 0
9:51 pm 21:51 Mostly Clear 82 27.8 56 13.3 41 41 NNW 12 19 29.81 1010 10 16.0934 0 0
10:51 pm 22:51 Mostly Cloudy 81 27.2 56 13.3 42 42 NW 10 17 29.82 1010 10 16.0934 0 0
11:51 pm 23:51 Mostly Clear 80 26.7 56 13.3 44 44 NW 7 11 29.83 1010 10 16.0934 0 0

Powered by AerisWeather